Location: Bouchavesnes-Bergen
(49.9859°N, 2.9203°E)
Time: 04:50:10
(UTC+00:00)

Cosmos 1666 Rocket - Pass Details

Date: 09 March 2021
Orbit: 605 x 632 km, 82.5° (Epoch: 11 April)

Event Time Altitude Azimuth Distance (km) Brightness Sun altitude
Rises 04:49:59 0° 345° (NNW) 2,886 7.0 -14.4°
Reaches altitude 10° 04:52:15 10° 341° (NNW) 1,980 6.1 -14.0°
Maximum altitude 04:56:29 51° 266° (W) 774 3.7 -13.4°
Drops below altitude 10° 05:00:45 10° 190° (S) 1,980 6.0 -12.7°
Sets 05:03:00 0° 185° (S) 2,885 6.9 -12.3°
